TimeEDT,TemperatureF,Dew PointF,Humidity,Sea Level PressureIn,VisibilityMPH,Wind Direction,Wind SpeedMPH,Gust SpeedMPH,PrecipitationIn,Events,Conditions,WindDirDegrees,DateUTC
12:15 AM,59.0,59.0,100,30.12,2.5,ENE,3.5,-,N/A,,Overcast,70,2012-10-26 04:15:00
12:55 AM,59.0,59.0,100,30.12,0.5,East,4.6,-,N/A,,Overcast,80,2012-10-26 04:55:00
1:15 AM,59.0,59.0,100,30.12,1.8,East,6.9,-,N/A,,Overcast,80,2012-10-26 05:15:00
1:35 AM,59.0,59.0,100,30.11,4.0,ENE,8.1,-,N/A,,Overcast,70,2012-10-26 05:35:00
2:15 AM,60.8,59.0,94,30.11,7.0,ENE,3.5,-,N/A,,Overcast,70,2012-10-26 06:15:00
2:35 AM,60.8,59.0,94,30.11,7.0,NE,4.6,-,N/A,,Overcast,50,2012-10-26 06:35:00
2:55 AM,59.0,57.2,94,30.10,7.0,NE,8.1,-,N/A,,Overcast,50,2012-10-26 06:55:00
3:15 AM,59.0,57.2,94,30.10,7.0,NNE,3.5,-,N/A,,Overcast,30,2012-10-26 07:15:00
3:35 AM,59.0,57.2,94,30.09,7.0,NNE,4.6,-,N/A,,Overcast,30,2012-10-26 07:35:00
3:55 AM,59.0,57.2,94,30.09,7.0,North,3.5,-,N/A,,Overcast,10,2012-10-26 07:55:00
4:15 AM,59.0,57.2,94,30.09,7.0,North,3.5,-,N/A,,Overcast,10,2012-10-26 08:15:00
4:35 AM,60.8,59.0,94,30.08,7.0,North,3.5,-,N/A,,Overcast,350,2012-10-26 08:35:00
4:55 AM,60.8,59.0,94,30.09,7.0,North,4.6,-,N/A,,Overcast,360,2012-10-26 08:55:00
5:15 AM,59.0,59.0,100,30.09,7.0,North,3.5,-,N/A,,Overcast,360,2012-10-26 09:15:00
5:35 AM,59.0,59.0,100,30.09,7.0,Calm,Calm,-,N/A,,Overcast,0,2012-10-26 09:35:00
5:55 AM,59.0,57.2,94,30.09,7.0,NNE,4.6,-,N/A,,Overcast,20,2012-10-26 09:55:00
6:15 AM,60.8,59.0,94,30.09,7.0,NNE,6.9,-,N/A,,Overcast,30,2012-10-26 10:15:00
6:35 AM,60.8,57.2,88,30.09,7.0,NE,8.1,-,N/A,,Overcast,40,2012-10-26 10:35:00
6:55 AM,60.8,57.2,88,30.09,7.0,NE,6.9,-,N/A,,Overcast,40,2012-10-26 10:55:00
7:15 AM,60.8,57.2,88,30.09,7.0,NE,4.6,-,N/A,,Overcast,40,2012-10-26 11:15:00
7:35 AM,60.8,59.0,94,30.09,7.0,NNE,5.8,-,N/A,,Overcast,30,2012-10-26 11:35:00
7:55 AM,60.8,59.0,94,30.10,7.0,NNE,5.8,-,N/A,,Overcast,30,2012-10-26 11:55:00
8:15 AM,60.8,59.0,94,30.09,5.0,North,6.9,-,N/A,,Overcast,360,2012-10-26 12:15:00
8:35 AM,60.8,59.0,94,30.10,5.0,North,5.8,-,N/A,,Overcast,350,2012-10-26 12:35:00
8:55 AM,60.8,59.0,94,30.11,1.8,North,4.6,-,N/A,,Overcast,350,2012-10-26 12:55:00
9:55 AM,60.8,60.8,100,30.10,1.0,North,5.8,-,N/A,,Overcast,360,2012-10-26 13:55:00
10:15 AM,62.6,62.6,100,30.10,1.8,North,5.8,-,N/A,,Overcast,10,2012-10-26 14:15:00
10:35 AM,62.6,62.6,100,30.10,2.5,North,6.9,-,N/A,,Overcast,360,2012-10-26 14:35:00
10:55 AM,64.4,62.6,94,30.09,4.0,North,8.1,-,N/A,,Overcast,10,2012-10-26 14:55:00
11:15 AM,64.4,62.6,94,30.08,5.0,North,6.9,-,N/A,,Overcast,360,2012-10-26 15:15:00
11:35 AM,66.2,62.6,88,30.09,7.0,North,9.2,-,N/A,,Overcast,10,2012-10-26 15:35:00
11:55 AM,68.0,62.6,83,30.08,7.0,North,11.5,17.3,N/A,,Overcast,360,2012-10-26 15:55:00
12:15 PM,68.0,62.6,83,30.06,7.0,North,15.0,-,N/A,,Overcast,10,2012-10-26 16:15:00
12:35 PM,69.8,62.6,78,30.06,10.0,NNE,13.8,-,N/A,,Overcast,20,2012-10-26 16:35:00
12:55 PM,69.8,62.6,78,30.04,10.0,NE,15.0,20.7,N/A,,Overcast,40,2012-10-26 16:55:00
1:15 PM,71.6,64.4,78,30.03,10.0,NNE,10.4,-,N/A,,Mostly Cloudy,20,2012-10-26 17:15:00
1:35 PM,73.4,64.4,73,30.02,10.0,NNE,11.5,-,N/A,,Scattered Clouds,20,2012-10-26 17:35:00
1:55 PM,73.4,62.6,69,30.01,10.0,NNE,11.5,19.6,N/A,,Scattered Clouds,30,2012-10-26 17:55:00
2:15 PM,73.4,62.6,69,30.00,10.0,NE,15.0,23.0,N/A,,Mostly Cloudy,40,2012-10-26 18:15:00
2:35 PM,73.4,60.8,65,30.00,10.0,NE,9.2,21.9,N/A,,Mostly Cloudy,50,2012-10-26 18:35:00
2:55 PM,71.6,60.8,69,29.99,10.0,NE,16.1,24.2,N/A,,Overcast,40,2012-10-26 18:55:00
3:15 PM,69.8,62.6,78,29.99,10.0,East,12.7,21.9,N/A,,Overcast,80,2012-10-26 19:15:00
3:35 PM,68.0,62.6,83,29.98,10.0,ENE,9.2,-,N/A,,Mostly Cloudy,60,2012-10-26 19:35:00
3:55 PM,69.8,62.6,78,29.98,10.0,ENE,9.2,-,N/A,,Mostly Cloudy,70,2012-10-26 19:55:00
4:15 PM,69.8,62.6,78,29.98,10.0,ENE,11.5,-,N/A,,Overcast,70,2012-10-26 20:15:00
4:35 PM,69.8,62.6,78,29.98,10.0,East,9.2,-,N/A,,Overcast,90,2012-10-26 20:35:00
4:55 PM,68.0,62.6,83,29.98,10.0,East,8.1,16.1,N/A,,Overcast,80,2012-10-26 20:55:00
5:15 PM,68.0,60.8,78,29.97,10.0,ENE,10.4,-,N/A,,Overcast,60,2012-10-26 21:15:00
5:35 PM,68.0,60.8,78,29.98,10.0,ENE,9.2,-,N/A,,Overcast,60,2012-10-26 21:35:00
5:55 PM,66.2,60.8,83,29.98,10.0,ENE,10.4,16.1,N/A,,Overcast,60,2012-10-26 21:55:00
6:15 PM,64.4,62.6,94,29.98,10.0,ENE,9.2,16.1,N/A,,Overcast,60,2012-10-26 22:15:00
6:35 PM,64.4,62.6,94,29.99,10.0,NE,6.9,-,0.01,,Overcast,40,2012-10-26 22:35:00
6:55 PM,62.6,62.6,100,29.99,10.0,NE,8.1,-,0.01,,Overcast,50,2012-10-26 22:55:00
7:15 PM,62.6,62.6,100,29.99,10.0,NNE,6.9,-,N/A,,Mostly Cloudy,30,2012-10-26 23:15:00
7:35 PM,62.6,62.6,100,29.99,10.0,NNE,6.9,-,N/A,,Overcast,20,2012-10-26 23:35:00
7:55 PM,62.6,62.6,100,29.98,10.0,NNE,8.1,-,N/A,,Overcast,20,2012-10-26 23:55:00
8:15 PM,62.6,62.6,100,29.98,10.0,North,9.2,-,N/A,,Overcast,10,2012-10-27 00:15:00
8:35 PM,62.6,62.6,100,29.97,10.0,North,10.4,-,N/A,,Overcast,10,2012-10-27 00:35:00
8:55 PM,62.6,62.6,100,29.97,10.0,NNE,12.7,16.1,N/A,,Overcast,20,2012-10-27 00:55:00
9:15 PM,62.6,62.6,100,29.96,10.0,NNE,11.5,-,N/A,,Overcast,30,2012-10-27 01:15:00
9:35 PM,62.6,62.6,100,29.96,10.0,NNE,10.4,-,N/A,,Mostly Cloudy,30,2012-10-27 01:35:00
9:55 PM,62.6,62.6,100,29.96,10.0,NNE,9.2,-,N/A,,Scattered Clouds,30,2012-10-27 01:55:00
10:15 PM,62.6,62.6,100,29.95,10.0,NE,11.5,16.1,N/A,,Scattered Clouds,40,2012-10-27 02:15:00
10:35 PM,62.6,62.6,100,29.94,10.0,NNE,10.4,-,N/A,,Clear,30,2012-10-27 02:35:00
11:15 PM,62.6,60.8,94,29.93,10.0,NNE,9.2,-,N/A,,Scattered Clouds,30,2012-10-27 03:15:00
11:35 PM,62.6,60.8,94,29.92,10.0,NNE,10.4,-,N/A,,Clear,30,2012-10-27 03:35:00
11:55 PM,62.6,60.8,94,29.92,10.0,NNE,9.2,-,N/A,,Clear,30,2012-10-27 03:55:00